Regional Weather Roundup
Issued by NWS

Home | Current Version | Previous Version | Graphics & Text | Print | Product List | Glossary On
Versions: 1 2 3 4 5 6 7 8 9 10 11 12 13 14 15 16 17 18 19 20 21 22 23 24 25 26 27 28 29 30 31 32 33 34 35 36 37 38 39 40 41 42 43 44 45 46 47 48 49 50
000
ASUS43 KFSD 221910
RWRSD

WEATHER ROUNDUP FOR SOUTH DAKOTA
NATIONAL WEATHER SERVICE SIOUX FALLS SD
100 PM CST MON DEC 22 2014

NOTE: "FAIR" INDICATES FEW OR NO CLOUDS BELOW 12,000 FEET WITH NO
SIGNIFICANT WEATHER AND/OR OBSTRUCTIONS TO VISIBILITY.


SDZ001>005-009-010-012>017-222000-
NORTHWEST AND NORTH CENTRAL SOUTH DAKOTA

CITY           SKY/WX    TMP DP  RH WIND       PRES   REMARKS
BUFFALO          N/A     32  29  88 NW25G35   29.47R WCI  19
FAITH            N/A     32  25  75 NW28G36   29.49S WCI  18
MOBRIDGE       LGT SNOW  32  29  88 N14       29.42S FOG     WCI  22
$$

SDZ012>016-024>037-041>051-057-063-072>074-222000-
SOUTHWEST AND SOUTH CENTRAL SOUTH DAKOTA

CITY           SKY/WX    TMP DP  RH WIND       PRES   REMARKS
RAPID CTY ARPT PTSUNNY   44  22  41 NW41G51   29.50S
PIERRE         CLOUDY    36  29  75 NW31G39   29.43F
CUSTER         PTSUNNY   32  17  54 NW20G33   29.51F WCI  20
PHILIP         LGT RAIN  37  31  78 NW15      29.50S
PINE RIDGE     CLOUDY    43  24  47 W24G33    29.53F
SPEARFISH      MIX PCPN  37  23  56 NW23G39   29.57R
WINNER         LGT RAIN  37  34  89 W14       29.46S
$$

SDZ004>011-016>023-039-040-222000-
NORTHEAST SOUTH DAKOTA

CITY           SKY/WX    TMP DP  RH WIND       PRES   REMARKS
ABERDEEN       CLOUDY    35  33  92 NE5       29.41S FOG
WATERTOWN      LGT RAIN  38  37  97 SE13      29.38F
SISSETON         N/A     38  38 100 SE14      29.42F
$$

SDZ017-020-022-023-036>040-048>070-222000-
SOUTHEAST SOUTH DAKOTA

CITY           SKY/WX    TMP DP  RH WIND       PRES   REMARKS
SIOUX FALLS    CLOUDY    39  38  96 CALM      29.40F
HURON          CLOUDY    34  31  88 NW7       29.41F WCI  28
CHAMBERLAIN    CLOUDY    35  33  91 NW13      29.43F WCI  27
MITCHELL       CLOUDY    37  36  96 NW9       29.42F
YANKTON        CLOUDY    39  36  87 NW9       29.43S
$$

ABBREVIATIONS USED IN REMARKS
   TC - TEMPERATURE IN CELSIUS
  WCI - WIND CHILL INDEX
   HX - HEAT INDEX
  VSB - VISIBILITY



USA.gov is the U.S. government's official web portal to all federal, state and local government web resources and services.